TimeCDT,TemperatureF,Dew PointF,Humidity,Sea Level PressureIn,VisibilityMPH,Wind Direction,Wind SpeedMPH,Gust SpeedMPH,PrecipitationIn,Events,Conditions,WindDirDegrees,DateUTC
12:15 AM,68.0,59.0,73,29.75,10.0,SSE,13.8,18.4,N/A,,Partly Cloudy,150,2013-04-08 05:15:00
12:35 AM,68.0,59.0,73,29.75,10.0,SSE,17.3,25.3,N/A,,Partly Cloudy,150,2013-04-08 05:35:00
12:55 AM,66.2,59.0,78,29.75,10.0,SSE,15.0,24.2,N/A,,Clear,160,2013-04-08 05:55:00
1:15 AM,66.2,59.0,78,29.76,10.0,SSE,16.1,29.9,N/A,,Clear,160,2013-04-08 06:15:00
1:35 AM,64.4,59.0,83,29.76,10.0,SSE,12.7,20.7,N/A,,Clear,160,2013-04-08 06:35:00
1:55 AM,64.4,59.0,83,29.76,10.0,SSE,11.5,18.4,N/A,,Partly Cloudy,150,2013-04-08 06:55:00
2:15 AM,66.2,59.0,78,29.76,10.0,SSE,11.5,17.3,N/A,,Mostly Cloudy,160,2013-04-08 07:15:00
2:35 AM,66.2,59.0,78,29.75,10.0,SSE,12.7,18.4,N/A,,Overcast,160,2013-04-08 07:35:00
2:55 AM,66.2,59.0,78,29.74,10.0,SSE,10.4,18.4,N/A,,Overcast,160,2013-04-08 07:55:00
3:15 AM,66.2,60.8,83,29.74,10.0,SSE,10.4,19.6,N/A,,Overcast,160,2013-04-08 08:15:00
3:35 AM,66.2,60.8,83,29.73,10.0,South,13.8,20.7,N/A,,Overcast,170,2013-04-08 08:35:00
3:55 AM,66.2,60.8,83,29.73,10.0,South,12.7,17.3,N/A,,Overcast,180,2013-04-08 08:55:00
4:15 AM,66.2,60.8,83,29.73,10.0,South,11.5,16.1,N/A,,Overcast,170,2013-04-08 09:15:00
4:35 AM,66.2,60.8,83,29.72,10.0,South,15.0,-,N/A,,Overcast,180,2013-04-08 09:35:00
4:55 AM,66.2,60.8,83,29.72,10.0,South,13.8,24.2,N/A,,Overcast,180,2013-04-08 09:55:00
5:15 AM,66.2,60.8,83,29.72,10.0,South,11.5,-,N/A,,Overcast,170,2013-04-08 10:15:00
5:35 AM,66.2,60.8,83,29.72,10.0,South,11.5,-,N/A,,Overcast,170,2013-04-08 10:35:00
5:55 AM,66.2,60.8,83,29.72,10.0,South,13.8,-,N/A,,Overcast,170,2013-04-08 10:55:00
6:15 AM,66.2,60.8,83,29.72,10.0,South,12.7,21.9,N/A,,Overcast,170,2013-04-08 11:15:00
6:35 AM,66.2,60.8,83,29.73,10.0,SSE,11.5,-,N/A,,Overcast,160,2013-04-08 11:35:00
6:55 AM,66.2,60.8,83,29.73,10.0,South,16.1,23.0,N/A,,Overcast,170,2013-04-08 11:55:00
7:15 AM,66.2,60.8,83,29.74,10.0,SSE,10.4,-,N/A,,Overcast,160,2013-04-08 12:15:00
7:35 AM,64.4,60.8,88,29.74,10.0,South,12.7,-,N/A,,Overcast,170,2013-04-08 12:35:00
7:55 AM,64.4,59.0,83,29.75,10.0,South,11.5,18.4,N/A,,Overcast,180,2013-04-08 12:55:00
8:15 AM,64.4,60.8,88,29.75,10.0,South,11.5,-,N/A,,Overcast,170,2013-04-08 13:15:00
8:35 AM,66.2,60.8,83,29.75,10.0,South,10.4,-,N/A,,Overcast,180,2013-04-08 13:35:00
8:55 AM,66.2,59.0,78,29.75,10.0,South,12.7,-,N/A,,Overcast,170,2013-04-08 13:55:00
9:15 AM,66.2,59.0,78,29.75,10.0,South,12.7,-,N/A,,Overcast,180,2013-04-08 14:15:00
9:35 AM,66.2,59.0,78,29.75,10.0,South,15.0,18.4,N/A,,Overcast,190,2013-04-08 14:35:00
9:55 AM,68.0,60.8,78,29.75,10.0,South,15.0,23.0,N/A,,Overcast,170,2013-04-08 14:55:00
10:15 AM,68.0,60.8,78,29.75,10.0,South,11.5,21.9,N/A,,Overcast,180,2013-04-08 15:15:00
10:35 AM,68.0,60.8,78,29.75,10.0,South,19.6,24.2,N/A,,Overcast,180,2013-04-08 15:35:00
10:55 AM,68.0,62.6,83,29.75,10.0,South,15.0,20.7,N/A,,Overcast,190,2013-04-08 15:55:00
11:15 AM,68.0,60.8,78,29.75,10.0,South,16.1,25.3,N/A,,Overcast,190,2013-04-08 16:15:00
11:35 AM,68.0,62.6,83,29.75,10.0,South,12.7,21.9,N/A,,Overcast,190,2013-04-08 16:35:00
11:55 AM,68.0,62.6,83,29.75,10.0,South,15.0,21.9,N/A,,Overcast,180,2013-04-08 16:55:00
12:15 PM,69.8,62.6,78,29.75,10.0,South,13.8,19.6,N/A,,Overcast,180,2013-04-08 17:15:00
12:35 PM,69.8,62.6,78,29.74,10.0,SSW,16.1,-,N/A,,Overcast,200,2013-04-08 17:35:00
12:55 PM,69.8,62.6,78,29.74,10.0,South,16.1,-,N/A,,Overcast,180,2013-04-08 17:55:00
1:15 PM,69.8,62.6,78,29.74,10.0,South,12.7,-,N/A,,Overcast,180,2013-04-08 18:15:00
1:35 PM,69.8,62.6,78,29.73,10.0,South,10.4,19.6,N/A,,Overcast,190,2013-04-08 18:35:00
1:55 PM,71.6,62.6,73,29.72,10.0,South,11.5,18.4,N/A,,Overcast,180,2013-04-08 18:55:00
2:15 PM,71.6,62.6,73,29.71,10.0,SSE,16.1,19.6,N/A,,Overcast,160,2013-04-08 19:15:00
2:35 PM,73.4,62.6,69,29.70,10.0,South,15.0,21.9,N/A,,Overcast,190,2013-04-08 19:35:00
2:55 PM,75.2,62.6,65,29.69,10.0,South,12.7,19.6,N/A,,Overcast,170,2013-04-08 19:55:00
3:15 PM,75.2,64.4,69,29.67,10.0,South,10.4,18.4,N/A,,Overcast,170,2013-04-08 20:15:00
3:35 PM,75.2,62.6,65,29.66,10.0,South,13.8,23.0,N/A,,Mostly Cloudy,170,2013-04-08 20:35:00
3:55 PM,75.2,62.6,65,29.66,10.0,South,18.4,23.0,N/A,,Overcast,170,2013-04-08 20:55:00
4:15 PM,77.0,62.6,61,29.65,10.0,South,23.0,26.5,N/A,,Mostly Cloudy,190,2013-04-08 21:15:00
4:35 PM,75.2,64.4,69,29.64,10.0,SSE,16.1,24.2,N/A,,Mostly Cloudy,150,2013-04-08 21:35:00
4:55 PM,75.2,64.4,69,29.64,10.0,SSE,18.4,24.2,N/A,,Mostly Cloudy,150,2013-04-08 21:55:00
5:15 PM,77.0,64.4,65,29.63,10.0,SSE,17.3,25.3,N/A,,Scattered Clouds,160,2013-04-08 22:15:00
5:35 PM,77.0,64.4,65,29.62,10.0,SSE,18.4,25.3,N/A,,Partly Cloudy,150,2013-04-08 22:35:00
5:55 PM,75.2,64.4,69,29.62,10.0,SE,18.4,24.2,N/A,,Partly Cloudy,130,2013-04-08 22:55:00
6:15 PM,75.2,64.4,69,29.61,10.0,SE,19.6,27.6,N/A,,Clear,140,2013-04-08 23:15:00
6:35 PM,73.4,64.4,73,29.61,10.0,SE,20.7,28.8,N/A,,Partly Cloudy,130,2013-04-08 23:35:00
6:55 PM,73.4,64.4,73,29.61,10.0,SE,20.7,31.1,N/A,,Partly Cloudy,140,2013-04-08 23:55:00
7:15 PM,71.6,64.4,78,29.62,10.0,SE,19.6,31.1,N/A,,Partly Cloudy,140,2013-04-09 00:15:00
7:35 PM,71.6,64.4,78,29.63,10.0,SE,16.1,26.5,N/A,,Scattered Clouds,140,2013-04-09 00:35:00
7:55 PM,71.6,64.4,78,29.63,10.0,SSE,19.6,29.9,N/A,,Scattered Clouds,150,2013-04-09 00:55:00
8:15 PM,69.8,64.4,83,29.64,9.0,SSE,15.0,25.3,N/A,,Clear,150,2013-04-09 01:15:00
8:35 PM,69.8,64.4,83,29.64,10.0,SSE,15.0,21.9,N/A,,Clear,150,2013-04-09 01:35:00
8:55 PM,68.0,64.4,88,29.65,9.0,SE,11.5,18.4,N/A,,Partly Cloudy,140,2013-04-09 01:55:00
9:15 PM,68.0,64.4,88,29.65,8.0,SSE,13.8,23.0,N/A,,Scattered Clouds,150,2013-04-09 02:15:00
9:35 PM,69.8,64.4,83,29.66,8.0,SSE,16.1,23.0,N/A,,Mostly Cloudy,150,2013-04-09 02:35:00
9:55 PM,69.8,64.4,83,29.67,8.0,SSE,17.3,27.6,N/A,,Mostly Cloudy,150,2013-04-09 02:55:00
10:15 PM,68.0,64.4,88,29.67,8.0,SSE,19.6,24.2,N/A,,Mostly Cloudy,150,2013-04-09 03:15:00
10:35 PM,68.0,64.4,88,29.67,8.0,SSE,16.1,23.0,N/A,,Scattered Clouds,150,2013-04-09 03:35:00
10:55 PM,68.0,62.6,83,29.67,9.0,SSE,18.4,27.6,N/A,,Scattered Clouds,150,2013-04-09 03:55:00
11:15 PM,68.0,62.6,83,29.67,9.0,SSE,17.3,25.3,N/A,,Scattered Clouds,150,2013-04-09 04:15:00
11:35 PM,68.0,62.6,83,29.67,9.0,SSE,15.0,21.9,N/A,,Mostly Cloudy,150,2013-04-09 04:35:00
11:55 PM,68.0,62.6,83,29.67,9.0,SSE,16.1,23.0,N/A,,Mostly Cloudy,150,2013-04-09 04:55:00